Wetterdaten: Woche 15.02.16 - 21.02.16 (KW7)
Datum Zeit Temp. I. Temp. A. Feuchte I. Feuchte A. Luftdruck Regen Wind Richtung Sonnenschein UV Solar Taupunkt Windchill Windben
15.02.2016 00:00 22,6 C 3,5 C 47 % 94 % 998,4 hPa 0,0 l/m 0,4 km/h (0 Bft) W 0,00 h 0,0 UV-I 0 W/m 2,6 C 3,5 C 1,0 km/h (0 Bft)
15.02.2016 01:00 22,4 C 3,3 C 48 % 94 % 999,5 hPa 0,0 l/m 0,5 km/h (0 Bft) W-SW 0,00 h 0,0 UV-I 0 W/m 2,4 C 3,3 C 1,5 km/h (1 Bft)
15.02.2016 02:00 22,3 C 3,2 C 48 % 94 % 1000,5 hPa 0,0 l/m 0,0 km/h (0 Bft) N 0,00 h 0,0 UV-I 0 W/m 2,2 C 3,2 C 0,1 km/h (0 Bft)
15.02.2016 03:00 22,3 C 3,0 C 48 % 94 % 1001,2 hPa 0,0 l/m 0,0 km/h (0 Bft) N 0,00 h 0,0 UV-I 0 W/m 2,2 C 3,0 C 0,0 km/h (0 Bft)
15.02.2016 04:00 22,3 C 2,8 C 48 % 95 % 1001,9 hPa 0,0 l/m 0,0 km/h (0 Bft) N 0,00 h 0,0 UV-I 0 W/m 2,1 C 2,8 C 0,0 km/h (0 Bft)
15.02.2016 05:00 22,2 C 2,7 C 48 % 95 % 1002,7 hPa 0,0 l/m 0,0 km/h (0 Bft) N 0,00 h 0,0 UV-I 0 W/m 2,0 C 2,7 C 0,0 km/h (0 Bft)
15.02.2016 06:00 22,2 C 2,4 C 48 % 95 % 1003,5 hPa 0,0 l/m 0,5 km/h (0 Bft) W 0,00 h 0,0 UV-I 0 W/m 1,7 C 2,4 C 1,2 km/h (1 Bft)
15.02.2016 07:00 22,2 C 2,2 C 48 % 96 % 1004,5 hPa 0,0 l/m 0,0 km/h (0 Bft) N 0,00 h 0,0 UV-I 10 W/m 1,6 C 2,2 C 0,0 km/h (0 Bft)
15.02.2016 08:00 22,2 C 2,5 C 48 % 96 % 1005,8 hPa 0,0 l/m 0,0 km/h (0 Bft) N 0,00 h 0,0 UV-I 41 W/m 2,0 C 2,5 C 0,0 km/h (0 Bft)
15.02.2016 09:00 22,4 C 3,2 C 49 % 97 % 1006,9 hPa 0,0 l/m 0,0 km/h (0 Bft) N 0,00 h 0,5 UV-I 60 W/m 2,8 C 3,2 C 0,1 km/h (0 Bft)
15.02.2016 10:00 21,4 C 3,9 C 42 % 95 % 1008,0 hPa 0,0 l/m 0,8 km/h (0 Bft) S 0,00 h 0,5 UV-I 68 W/m 3,2 C 3,9 C 2,1 km/h (1 Bft)
15.02.2016 11:00 20,6 C 4,4 C 43 % 92 % 1009,1 hPa 0,0 l/m 0,1 km/h (0 Bft) W-SW 0,43 h 0,8 UV-I 131 W/m 3,3 C 4,4 C 0,5 km/h (0 Bft)
15.02.2016 12:00 21,3 C 5,1 C 45 % 88 % 1009,6 hPa 0,0 l/m 0,0 km/h (0 Bft) N 0,08 h 0,8 UV-I 102 W/m 3,3 C 5,1 C 0,0 km/h (0 Bft)
15.02.2016 13:00 21,5 C 4,7 C 45 % 90 % 1010,5 hPa 1,4 l/m 1,8 km/h (1 Bft) NW 0,08 h 0,7 UV-I 58 W/m 3,2 C 4,7 C 3,4 km/h (1 Bft)
15.02.2016 14:00 21,6 C 4,0 C 45 % 94 % 1011,6 hPa 0,0 l/m 2,5 km/h (1 Bft) NW 0,12 h 0,7 UV-I 84 W/m 3,1 C 4,0 C 4,9 km/h (1 Bft)
15.02.2016 15:00 21,6 C 3,7 C 46 % 94 % 1012,9 hPa 0,0 l/m 0,3 km/h (0 Bft) NW 0,00 h 0,0 UV-I 61 W/m 2,8 C 3,7 C 0,8 km/h (0 Bft)
15.02.2016 16:00 21,6 C 3,7 C 46 % 94 % 1014,2 hPa 0,0 l/m 1,4 km/h (1 Bft) N 0,00 h 0,0 UV-I 21 W/m 2,8 C 3,7 C 3,3 km/h (1 Bft)
15.02.2016 17:00 21,9 C 3,5 C 46 % 94 % 1015,5 hPa 0,0 l/m 3,8 km/h (1 Bft) N 0,00 h 0,0 UV-I 0 W/m 2,6 C 3,5 C 6,6 km/h (2 Bft)
15.02.2016 18:00 22,1 C 3,0 C 47 % 94 % 1016,8 hPa 0,0 l/m 1,6 km/h (1 Bft) N-NW 0,00 h 0,0 UV-I 0 W/m 2,1 C 3,0 C 3,5 km/h (1 Bft)
15.02.2016 19:00 22,1 C 2,6 C 47 % 94 % 1018,4 hPa 0,0 l/m 3,0 km/h (1 Bft) N-NW 0,00 h 0,0 UV-I 0 W/m 1,7 C 2,5 C 6,8 km/h (2 Bft)
15.02.2016 20:00 22,1 C 2,2 C 47 % 93 % 1019,4 hPa 0,0 l/m 2,5 km/h (1 Bft) N 0,00 h 0,0 UV-I 0 W/m 1,2 C 2,0 C 6,5 km/h (2 Bft)
15.02.2016 21:00 21,9 C 2,1 C 47 % 93 % 1020,7 hPa 0,0 l/m 4,4 km/h (1 Bft) N-NW 0,00 h 0,0 UV-I 0 W/m 1,1 C 1,2 C 7,7 km/h (2 Bft)
15.02.2016 22:00 21,8 C 1,7 C 47 % 93 % 1021,8 hPa 0,0 l/m 9,0 km/h (2 Bft) N 0,00 h 0,0 UV-I 0 W/m 0,7 C -0,8 C 13,9 km/h (3 Bft)
15.02.2016 23:00 21,7 C 1,3 C 47 % 93 % 1022,7 hPa 0,0 l/m 6,8 km/h (2 Bft) N 0,00 h 0,0 UV-I 0 W/m 0,3 C -0,2 C 11,7 km/h (2 Bft)
16.02.2016 00:00 21,7 C 0,9 C 47 % 93 % 1024,0 hPa 0,0 l/m 1,6 km/h (1 Bft) NW 0,00 h 0,0 UV-I 0 W/m -0,2 C 0,8 C 3,1 km/h (1 Bft)
16.02.2016 01:00 21,8 C 0,7 C 48 % 92 % 1025,6 hPa 0,0 l/m 2,1 km/h (1 Bft) N-NW 0,00 h 0,0 UV-I 0 W/m -0,4 C 0,6 C 4,5 km/h (1 Bft)
16.02.2016 02:00 21,9 C 0,6 C 49 % 91 % 1026,8 hPa 0,0 l/m 2,8 km/h (1 Bft) N-NW 0,00 h 0,0 UV-I 0 W/m -0,7 C 0,2 C 5,4 km/h (1 Bft)
16.02.2016 03:00 21,9 C 0,5 C 50 % 91 % 1027,5 hPa 0,0 l/m 3,9 km/h (1 Bft) N 0,00 h 0,0 UV-I 0 W/m -0,8 C -0,2 C 6,3 km/h (2 Bft)
16.02.2016 04:00 21,9 C 0,3 C 50 % 90 % 1028,0 hPa 0,0 l/m 7,3 km/h (2 Bft) N 0,00 h 0,0 UV-I 0 W/m -1,1 C -1,4 C 10,7 km/h (2 Bft)
16.02.2016 05:00 21,9 C 0,1 C 50 % 91 % 1029,0 hPa 0,0 l/m 6,5 km/h (2 Bft) N 0,00 h 0,0 UV-I 0 W/m -1,2 C -1,0 C 10,8 km/h (2 Bft)
16.02.2016 06:00 21,8 C -0,1 C 50 % 91 % 1029,9 hPa 0,0 l/m 5,5 km/h (1 Bft) N-NW 0,00 h 0,0 UV-I 0 W/m -1,4 C -0,9 C 9,2 km/h (2 Bft)
16.02.2016 07:00 21,9 C -0,3 C 50 % 91 % 1031,1 hPa 0,0 l/m 8,6 km/h (2 Bft) N 0,00 h 0,0 UV-I 7 W/m -1,6 C -2,7 C 12,3 km/h (3 Bft)
16.02.2016 08:00 21,7 C -0,4 C 48 % 91 % 1032,0 hPa 0,0 l/m 6,7 km/h (2 Bft) N 0,00 h 0,0 UV-I 16 W/m -1,7 C -1,8 C 10,4 km/h (2 Bft)
16.02.2016 09:00 21,6 C -0,2 C 47 % 91 % 1032,8 hPa 0,0 l/m 5,9 km/h (2 Bft) N 0,00 h 0,5 UV-I 84 W/m -1,6 C -1,2 C 9,8 km/h (2 Bft)
16.02.2016 10:00 21,5 C 0,6 C 47 % 88 % 1033,5 hPa 0,0 l/m 8,0 km/h (2 Bft) N-NO 1,00 h 0,8 UV-I 196 W/m -1,1 C -1,5 C 13,9 km/h (3 Bft)
16.02.2016 11:00 21,5 C 1,5 C 47 % 86 % 1033,9 hPa 0,0 l/m 10,8 km/h (2 Bft) N-NO 0,93 h 1,3 UV-I 302 W/m -0,5 C -2,4 C 16,4 km/h (3 Bft)
16.02.2016 12:00 21,5 C 1,6 C 47 % 85 % 1034,0 hPa 0,0 l/m 8,2 km/h (2 Bft) N-NO 0,80 h 1,2 UV-I 203 W/m -0,6 C -0,4 C 12,8 km/h (3 Bft)
16.02.2016 13:00 21,5 C 2,2 C 45 % 83 % 1034,0 hPa 0,0 l/m 7,1 km/h (2 Bft) N-NO 0,52 h 0,9 UV-I 147 W/m -0,4 C 0,9 C 11,5 km/h (2 Bft)
16.02.2016 14:00 21,7 C 1,8 C 45 % 84 % 1034,1 hPa 0,0 l/m 7,7 km/h (2 Bft) N-NO 0,08 h 0,6 UV-I 75 W/m -0,6 C 0,1 C 12,4 km/h (3 Bft)
16.02.2016 15:00 21,7 C 1,3 C 42 % 86 % 1034,4 hPa 0,0 l/m 8,0 km/h (2 Bft) N-NO 0,00 h 0,0 UV-I 42 W/m -0,8 C -0,8 C 10,6 km/h (2 Bft)
16.02.2016 16:00 22,0 C 1,2 C 44 % 84 % 1034,6 hPa 0,0 l/m 4,0 km/h (1 Bft) O-NO 0,00 h 0,0 UV-I 15 W/m -1,2 C 0,9 C 8,3 km/h (2 Bft)
16.02.2016 17:00 22,2 C 0,6 C 45 % 83 % 1034,9 hPa 0,0 l/m 6,7 km/h (2 Bft) O-NO 0,00 h 0,0 UV-I 0 W/m -1,9 C -1,1 C 12,6 km/h (3 Bft)
16.02.2016 18:00 22,1 C 0,2 C 44 % 86 % 1035,1 hPa 0,0 l/m 5,3 km/h (1 Bft) NO 0,00 h 0,0 UV-I 0 W/m -1,9 C -0,6 C 11,1 km/h (2 Bft)
16.02.2016 19:00 22,1 C 0,0 C 44 % 85 % 1035,3 hPa 0,0 l/m 5,9 km/h (2 Bft) O-NO 0,00 h 0,0 UV-I 0 W/m -2,2 C -0,9 C 11,7 km/h (2 Bft)
16.02.2016 20:00 21,9 C -0,1 C 43 % 85 % 1035,2 hPa 0,0 l/m 5,5 km/h (1 Bft) O-NO 0,00 h 0,0 UV-I 0 W/m -2,3 C -0,9 C 11,0 km/h (2 Bft)
16.02.2016 21:00 22,2 C -0,2 C 45 % 86 % 1034,9 hPa 0,0 l/m 5,4 km/h (1 Bft) O-NO 0,00 h 0,0 UV-I 0 W/m -2,3 C -1,5 C 10,4 km/h (2 Bft)
16.02.2016 22:00 22,2 C -0,5 C 44 % 86 % 1034,1 hPa 0,0 l/m 5,3 km/h (1 Bft) O-NO 0,00 h 0,0 UV-I 0 W/m -2,5 C -1,3 C 10,3 km/h (2 Bft)
16.02.2016 23:00 22,1 C -0,7 C 45 % 87 % 1033,2 hPa 0,0 l/m 5,4 km/h (1 Bft) O-NO 0,00 h 0,0 UV-I 0 W/m -2,6 C -1,3 C 11,0 km/h (2 Bft)
17.02.2016 00:00 21,8 C -0,4 C 45 % 87 % 1032,3 hPa 0,0 l/m 9,0 km/h (2 Bft) O-NO 0,00 h 0,0 UV-I 0 W/m -2,3 C -2,9 C 15,9 km/h (3 Bft)
17.02.2016 01:00 21,7 C -0,2 C 46 % 86 % 1031,6 hPa 0,0 l/m 7,0 km/h (2 Bft) O-NO 0,00 h 0,0 UV-I 0 W/m -2,2 C -1,8 C 12,6 km/h (3 Bft)
17.02.2016 02:00 21,6 C -0,1 C 46 % 88 % 1030,6 hPa 0,0 l/m 6,5 km/h (2 Bft) O-NO 0,00 h 0,0 UV-I 0 W/m -1,9 C -1,4 C 12,7 km/h (3 Bft)
17.02.2016 03:00 21,6 C -0,0 C 46 % 89 % 1029,3 hPa 0,0 l/m 8,4 km/h (2 Bft) O-NO 0,00 h 0,0 UV-I 0 W/m -1,6 C -2,7 C 14,8 km/h (3 Bft)
17.02.2016 04:00 21,6 C -0,1 C 46 % 89 % 1028,1 hPa 0,0 l/m 8,0 km/h (2 Bft) O-NO 0,00 h 0,0 UV-I 0 W/m -1,8 C -2,3 C 15,1 km/h (3 Bft)
17.02.2016 05:00 21,5 C -0,2 C 47 % 87 % 1027,6 hPa 0,0 l/m 8,4 km/h (2 Bft) O-NO 0,00 h 0,0 UV-I 0 W/m -2,1 C -2,6 C 15,0 km/h (3 Bft)
17.02.2016 06:00 21,5 C -0,3 C 47 % 86 % 1026,6 hPa 0,0 l/m 10,6 km/h (2 Bft) O-NO 0,00 h 0,0 UV-I 0 W/m -2,4 C -4,2 C 18,7 km/h (3 Bft)
17.02.2016 07:00 21,5 C -0,4 C 47 % 87 % 1025,6 hPa 0,0 l/m 9,4 km/h (2 Bft) O-NO 0,00 h 0,0 UV-I 5 W/m -2,3 C -3,5 C 16,4 km/h (3 Bft)
17.02.2016 08:00 21,6 C -0,4 C 47 % 88 % 1024,4 hPa 0,0 l/m 8,0 km/h (2 Bft) O-NO 0,00 h 0,0 UV-I 17 W/m -2,1 C -3,0 C 14,7 km/h (3 Bft)
17.02.2016 09:00 21,8 C -0,2 C 47 % 87 % 1022,8 hPa 0,0 l/m 6,9 km/h (2 Bft) NO 0,02 h 0,4 UV-I 50 W/m -2,1 C -2,0 C 13,0 km/h (3 Bft)
17.02.2016 10:00 21,8 C -0,2 C 44 % 86 % 1021,6 hPa 0,0 l/m 7,4 km/h (2 Bft) O-NO 0,00 h 0,5 UV-I 34 W/m -2,2 C -2,2 C 14,0 km/h (3 Bft)
17.02.2016 11:00 22,2 C 0,0 C 43 % 88 % 1020,3 hPa 0,0 l/m 6,6 km/h (2 Bft) O-NO 0,00 h 0,5 UV-I 65 W/m -1,7 C -1,4 C 13,1 km/h (3 Bft)
17.02.2016 12:00 22,1 C 0,1 C 42 % 90 % 1018,9 hPa 0,0 l/m 6,9 km/h (2 Bft) O-NO 0,00 h 0,6 UV-I 87 W/m -1,3 C -1,6 C 12,8 km/h (3 Bft)
17.02.2016 13:00 22,2 C 0,1 C 43 % 90 % 1017,9 hPa 0,0 l/m 5,0 km/h (1 Bft) O-NO 0,00 h 0,0 UV-I 44 W/m -1,3 C -0,5 C 8,6 km/h (2 Bft)
17.02.2016 14:00 22,2 C 0,1 C 42 % 92 % 1016,9 hPa 0,0 l/m 3,2 km/h (1 Bft) O-NO 0,00 h 0,0 UV-I 42 W/m -1,1 C -0,0 C 7,5 km/h (2 Bft)
17.02.2016 15:00 22,1 C 0,1 C 42 % 93 % 1016,2 hPa 0,0 l/m 0,6 km/h (0 Bft) O-NO 0,00 h 0,0 UV-I 37 W/m -0,9 C 0,1 C 1,5 km/h (1 Bft)
17.02.2016 16:00 22,2 C 0,1 C 42 % 94 % 1015,9 hPa 0,2 l/m 0,0 km/h (0 Bft) N 0,00 h 0,0 UV-I 24 W/m -0,8 C 0,1 C 0,0 km/h (0 Bft)
17.02.2016 17:00 22,4 C 0,1 C 43 % 94 % 1015,7 hPa 0,2 l/m 0,0 km/h (0 Bft) N 0,00 h 0,0 UV-I 5 W/m -0,8 C 0,1 C 0,0 km/h (0 Bft)
17.02.2016 18:00 22,5 C -0,1 C 43 % 95 % 1016,0 hPa 0,0 l/m 0,0 km/h (0 Bft) N 0,00 h 0,0 UV-I 0 W/m -0,8 C -0,1 C 0,0 km/h (0 Bft)
17.02.2016 19:00 22,4 C -0,1 C 44 % 95 % 1016,1 hPa 0,0 l/m 0,0 km/h (0 Bft) N 0,00 h 0,0 UV-I 0 W/m -0,8 C -0,1 C 0,0 km/h (0 Bft)
17.02.2016 20:00 22,4 C 0,0 C 44 % 96 % 1016,3 hPa 0,0 l/m 0,1 km/h (0 Bft) S 0,00 h 0,0 UV-I 0 W/m -0,6 C 0,0 C 0,8 km/h (0 Bft)
17.02.2016 21:00 22,5 C 0,1 C 44 % 96 % 1016,6 hPa 0,0 l/m 1,0 km/h (0 Bft) S 0,00 h 0,0 UV-I 0 W/m -0,5 C 0,1 C 3,5 km/h (1 Bft)
17.02.2016 22:00 22,4 C 0,1 C 44 % 96 % 1016,7 hPa 0,0 l/m 1,7 km/h (1 Bft) S 0,00 h 0,0 UV-I 0 W/m -0,4 C 0,1 C 5,3 km/h (1 Bft)
17.02.2016 23:00 22,1 C 0,2 C 44 % 96 % 1017,2 hPa 0,0 l/m 2,3 km/h (1 Bft) S 0,00 h 0,0 UV-I 0 W/m -0,4 C 0,1 C 5,6 km/h (1 Bft)
18.02.2016 00:00 21,9 C 0,2 C 45 % 95 % 1017,4 hPa 0,0 l/m 1,7 km/h (1 Bft) S 0,00 h 0,0 UV-I 0 W/m -0,5 C 0,2 C 5,1 km/h (1 Bft)
18.02.2016 01:00 21,8 C 0,2 C 45 % 95 % 1017,5 hPa 0,0 l/m 0,6 km/h (0 Bft) S 0,00 h 0,0 UV-I 0 W/m -0,5 C 0,2 C 2,1 km/h (1 Bft)
18.02.2016 02:00 21,8 C 0,2 C 46 % 95 % 1017,8 hPa 0,0 l/m 0,7 km/h (0 Bft) S 0,00 h 0,0 UV-I 0 W/m -0,6 C 0,2 C 2,3 km/h (1 Bft)
18.02.2016 03:00 21,7 C -0,1 C 47 % 95 % 1017,7 hPa 0,0 l/m 0,6 km/h (0 Bft) S 0,00 h 0,0 UV-I 0 W/m -0,9 C -0,1 C 2,3 km/h (1 Bft)
18.02.2016 04:00 21,9 C -0,7 C 47 % 94 % 1017,6 hPa 0,0 l/m 0,1 km/h (0 Bft) W-SW 0,00 h 0,0 UV-I 0 W/m -1,5 C -0,7 C 0,5 km/h (0 Bft)
18.02.2016 05:00 22,0 C -0,7 C 47 % 95 % 1017,8 hPa 0,0 l/m 1,7 km/h (1 Bft) S 0,00 h 0,0 UV-I 0 W/m -1,4 C -0,8 C 3,8 km/h (1 Bft)
18.02.2016 06:00 22,0 C -0,9 C 48 % 95 % 1018,1 hPa 0,0 l/m 0,7 km/h (0 Bft) S 0,00 h 0,0 UV-I 0 W/m -1,6 C -0,9 C 2,0 km/h (1 Bft)
18.02.2016 07:00 22,0 C -0,9 C 48 % 95 % 1018,2 hPa 0,0 l/m 0,2 km/h (0 Bft) S 0,00 h 0,0 UV-I 8 W/m -1,6 C -0,9 C 0,6 km/h (0 Bft)
18.02.2016 08:00 22,2 C -0,6 C 48 % 95 % 1018,5 hPa 0,0 l/m 0,3 km/h (0 Bft) O-NO 0,00 h 0,0 UV-I 33 W/m -1,3 C -0,6 C 1,1 km/h (1 Bft)
18.02.2016 09:00 22,3 C 0,4 C 46 % 92 % 1018,5 hPa 0,0 l/m 0,1 km/h (0 Bft) O-NO 0,43 h 0,7 UV-I 131 W/m -0,8 C 0,4 C 0,4 km/h (0 Bft)
18.02.2016 10:00 22,3 C 2,3 C 43 % 86 % 1018,5 hPa 0,0 l/m 0,5 km/h (0 Bft) S 1,00 h 1,1 UV-I 300 W/m 0,3 C 2,3 C 1,4 km/h (1 Bft)
18.02.2016 11:00 22,4 C 3,5 C 41 % 84 % 1018,5 hPa 0,0 l/m 1,0 km/h (0 Bft) W-SW 1,00 h 1,5 UV-I 381 W/m 1,1 C 3,5 C 2,5 km/h (1 Bft)
18.02.2016 12:00 22,2 C 4,9 C 40 % 80 % 1018,0 hPa 0,0 l/m 2,5 km/h (1 Bft) S 1,00 h 1,7 UV-I 416 W/m 1,7 C 4,9 C 4,8 km/h (1 Bft)
18.02.2016 13:00 22,4 C 6,0 C 41 % 72 % 1017,3 hPa 0,0 l/m 2,4 km/h (1 Bft) W-SW 1,00 h 1,4 UV-I 422 W/m 1,4 C 6,0 C 4,9 km/h (1 Bft)
18.02.2016 14:00 22,6 C 5,0 C 42 % 74 % 1016,9 hPa 0,0 l/m 0,8 km/h (0 Bft) W 0,30 h 0,8 UV-I 126 W/m 0,7 C 5,0 C 2,0 km/h (1 Bft)
18.02.2016 15:00 22,7 C 5,4 C 42 % 72 % 1016,5 hPa 0,0 l/m 0,8 km/h (0 Bft) W-NW 0,15 h 0,6 UV-I 125 W/m 0,7 C 5,4 C 1,9 km/h (1 Bft)
18.02.2016 16:00 22,7 C 5,3 C 42 % 73 % 1016,5 hPa 0,0 l/m 0,0 km/h (0 Bft) N 0,10 h 0,0 UV-I 48 W/m 0,8 C 5,3 C 0,0 km/h (0 Bft)
18.02.2016 17:00 22,8 C 4,6 C 43 % 76 % 1016,5 hPa 0,0 l/m 0,2 km/h (0 Bft) O-NO 0,00 h 0,0 UV-I 6 W/m 0,7 C 4,6 C 0,8 km/h (0 Bft)
18.02.2016 18:00 22,9 C 3,7 C 44 % 79 % 1016,8 hPa 0,0 l/m 0,1 km/h (0 Bft) O 0,00 h 0,0 UV-I 0 W/m 0,4 C 3,7 C 0,3 km/h (0 Bft)
18.02.2016 19:00 22,6 C 2,7 C 41 % 82 % 1017,2 hPa 0,0 l/m 0,1 km/h (0 Bft) S-SO 0,00 h 0,0 UV-I 0 W/m 0,1 C 2,7 C 0,5 km/h (0 Bft)
18.02.2016 20:00 22,6 C 2,2 C 41 % 85 % 1017,2 hPa 0,0 l/m 0,0 km/h (0 Bft) N 0,00 h 0,0 UV-I 0 W/m -0,0 C 2,2 C 0,0 km/h (0 Bft)
18.02.2016 21:00 22,6 C 1,3 C 42 % 87 % 1017,1 hPa 0,0 l/m 0,0 km/h (0 Bft) N 0,00 h 0,0 UV-I 0 W/m -0,6 C 1,3 C 0,0 km/h (0 Bft)
18.02.2016 22:00 22,6 C 0,0 C 42 % 89 % 1017,0 hPa 0,0 l/m 0,0 km/h (0 Bft) N 0,00 h 0,0 UV-I 0 W/m -1,6 C 0,0 C 0,0 km/h (0 Bft)
18.02.2016 23:00 22,5 C -0,8 C 42 % 91 % 1017,1 hPa 0,0 l/m 0,0 km/h (0 Bft) N 0,00 h 0,0 UV-I 0 W/m -2,0 C -0,8 C 0,0 km/h (0 Bft)
19.02.2016 00:00 22,2 C -0,8 C 43 % 93 % 1017,1 hPa 0,0 l/m 0,0 km/h (0 Bft) N 0,00 h 0,0 UV-I 0 W/m -1,7 C -0,8 C 0,0 km/h (0 Bft)
19.02.2016 01:00 22,1 C -0,7 C 43 % 94 % 1017,3 hPa 0,0 l/m 0,0 km/h (0 Bft) N 0,00 h 0,0 UV-I 0 W/m -1,5 C -0,7 C 0,0 km/h (0 Bft)
19.02.2016 02:00 22,0 C -0,6 C 43 % 94 % 1017,2 hPa 0,0 l/m 0,0 km/h (0 Bft) N 0,00 h 0,0 UV-I 0 W/m -1,4 C -0,6 C 0,0 km/h (0 Bft)
19.02.2016 03:00 22,0 C -0,9 C 44 % 94 % 1017,4 hPa 0,0 l/m 0,0 km/h (0 Bft) N 0,00 h 0,0 UV-I 0 W/m -1,8 C -0,9 C 0,0 km/h (0 Bft)
19.02.2016 04:00 22,2 C -1,2 C 45 % 94 % 1017,4 hPa 0,0 l/m 0,1 km/h (0 Bft) O 0,00 h 0,0 UV-I 0 W/m -2,1 C -1,2 C 0,4 km/h (0 Bft)
19.02.2016 05:00 22,2 C -1,7 C 45 % 94 % 1017,8 hPa 0,0 l/m 0,0 km/h (0 Bft) N 0,00 h 0,0 UV-I 0 W/m -2,5 C -1,7 C 0,0 km/h (0 Bft)
19.02.2016 06:00 22,2 C -2,3 C 46 % 94 % 1017,9 hPa 0,0 l/m 0,0 km/h (0 Bft) N 0,00 h 0,0 UV-I 0 W/m -3,1 C -2,3 C 0,2 km/h (0 Bft)
19.02.2016 07:00 22,2 C -2,7 C 46 % 94 % 1018,2 hPa 0,0 l/m 0,0 km/h (0 Bft) N 0,00 h 0,0 UV-I 11 W/m -3,5 C -2,7 C 0,1 km/h (0 Bft)
19.02.2016 08:00 22,2 C -2,0 C 45 % 95 % 1018,7 hPa 0,0 l/m 0,0 km/h (0 Bft) N 0,00 h 0,0 UV-I 27 W/m -2,7 C -2,0 C 0,0 km/h (0 Bft)
19.02.2016 09:00 22,3 C -1,0 C 43 % 96 % 1019,0 hPa 0,0 l/m 0,0 km/h (0 Bft) N 0,00 h 0,5 UV-I 63 W/m -1,6 C -1,0 C 0,0 km/h (0 Bft)
19.02.2016 10:00 22,3 C -0,1 C 43 % 96 % 1019,5 hPa 0,0 l/m 0,0 km/h (0 Bft) N 0,00 h 0,5 UV-I 80 W/m -0,7 C -0,1 C 0,0 km/h (0 Bft)
19.02.2016 11:00 22,5 C 0,7 C 43 % 94 % 1019,9 hPa 0,0 l/m 0,6 km/h (0 Bft) W-SW 0,00 h 0,5 UV-I 74 W/m -0,1 C 0,7 C 1,1 km/h (1 Bft)
19.02.2016 12:00 22,6 C 1,1 C 42 % 89 % 1020,0 hPa 0,0 l/m 3,2 km/h (1 Bft) W-SW 0,00 h 0,5 UV-I 62 W/m -0,5 C 1,0 C 6,4 km/h (2 Bft)
19.02.2016 13:00 22,5 C 1,3 C 40 % 85 % 1020,2 hPa 0,0 l/m 4,2 km/h (1 Bft) W-SW 0,37 h 0,8 UV-I 154 W/m -0,9 C 1,1 C 8,4 km/h (2 Bft)
19.02.2016 14:00 22,6 C 1,8 C 39 % 81 % 1020,3 hPa 0,0 l/m 4,9 km/h (1 Bft) W-SW 0,25 h 0,7 UV-I 111 W/m -1,2 C 1,5 C 9,3 km/h (2 Bft)
19.02.2016 15:00 22,5 C 1,7 C 40 % 80 % 1020,7 hPa 0,0 l/m 2,7 km/h (1 Bft) W-SW 0,00 h 0,5 UV-I 90 W/m -1,3 C 1,7 C 6,9 km/h (2 Bft)
19.02.2016 16:00 22,6 C 1,8 C 41 % 80 % 1021,0 hPa 0,0 l/m 2,7 km/h (1 Bft) W-SW 0,00 h 0,0 UV-I 21 W/m -1,3 C 1,7 C 6,7 km/h (2 Bft)
19.02.2016 17:00 22,7 C 1,5 C 41 % 83 % 1021,5 hPa 0,0 l/m 1,1 km/h (0 Bft) W 0,00 h 0,0 UV-I 6 W/m -1,1 C 1,5 C 3,3 km/h (1 Bft)
19.02.2016 18:00 22,9 C 1,1 C 41 % 89 % 1021,9 hPa 0,0 l/m 1,4 km/h (1 Bft) W-SW 0,00 h 0,0 UV-I 0 W/m -0,6 C 1,1 C 3,9 km/h (1 Bft)
19.02.2016 19:00 22,9 C 1,0 C 42 % 90 % 1022,4 hPa 0,0 l/m 0,1 km/h (0 Bft) W-SW 0,00 h 0,0 UV-I 0 W/m -0,5 C 1,0 C 0,6 km/h (0 Bft)
19.02.2016 20:00 22,8 C 1,0 C 42 % 92 % 1022,6 hPa 0,0 l/m 0,7 km/h (0 Bft) W-SW 0,00 h 0,0 UV-I 0 W/m -0,2 C 1,0 C 2,3 km/h (1 Bft)
19.02.2016 21:00 23,0 C 0,8 C 46 % 95 % 1023,0 hPa 0,0 l/m 2,6 km/h (1 Bft) W-SW 0,00 h 0,0 UV-I 0 W/m 0,1 C 0,8 C 6,2 km/h (2 Bft)
19.02.2016 22:00 22,9 C 0,9 C 44 % 94 % 1023,1 hPa 0,0 l/m 2,5 km/h (1 Bft) W-SW 0,00 h 0,0 UV-I 0 W/m 0,0 C 0,9 C 6,3 km/h (2 Bft)
19.02.2016 23:00 22,5 C 0,9 C 44 % 93 % 1023,1 hPa 0,0 l/m 1,6 km/h (1 Bft) W 0,00 h 0,0 UV-I 0 W/m -0,1 C 0,9 C 5,0 km/h (1 Bft)
20.02.2016 00:00 22,3 C 0,9 C 45 % 92 % 1023,1 hPa 0,0 l/m 2,5 km/h (1 Bft) W-SW 0,00 h 0,0 UV-I 0 W/m -0,2 C 0,9 C 6,4 km/h (2 Bft)
20.02.2016 01:00 22,3 C 0,9 C 45 % 91 % 1023,3 hPa 0,0 l/m 3,1 km/h (1 Bft) W-SW 0,00 h 0,0 UV-I 0 W/m -0,4 C 0,8 C 7,8 km/h (2 Bft)
20.02.2016 02:00 22,2 C 0,9 C 45 % 88 % 1023,6 hPa 0,0 l/m 3,8 km/h (1 Bft) W-SW 0,00 h 0,0 UV-I 0 W/m -0,8 C 0,6 C 8,9 km/h (2 Bft)
20.02.2016 03:00 22,2 C 0,7 C 46 % 90 % 1022,9 hPa 0,0 l/m 2,2 km/h (1 Bft) S 0,00 h 0,0 UV-I 0 W/m -0,8 C 0,7 C 6,2 km/h (2 Bft)
20.02.2016 04:00 22,3 C 0,7 C 46 % 91 % 1022,8 hPa 0,0 l/m 2,1 km/h (1 Bft) S-SW 0,00 h 0,0 UV-I 0 W/m -0,6 C 0,7 C 6,6 km/h (2 Bft)
20.02.2016 05:00 22,3 C 0,3 C 47 % 91 % 1022,7 hPa 0,0 l/m 3,4 km/h (1 Bft) S 0,00 h 0,0 UV-I 0 W/m -1,0 C 0,1 C 8,2 km/h (2 Bft)
20.02.2016 06:00 22,3 C -0,3 C 47 % 91 % 1022,4 hPa 0,0 l/m 5,8 km/h (2 Bft) S 0,00 h 0,0 UV-I 0 W/m -1,5 C -1,4 C 11,3 km/h (2 Bft)
20.02.2016 07:00 22,3 C -0,3 C 47 % 90 % 1021,7 hPa 0,0 l/m 5,5 km/h (1 Bft) S 0,00 h 0,0 UV-I 20 W/m -1,8 C -1,0 C 11,2 km/h (2 Bft)
20.02.2016 08:00 22,4 C -0,0 C 46 % 88 % 1021,1 hPa 0,0 l/m 10,5 km/h (2 Bft) S 0,00 h 0,0 UV-I 61 W/m -1,8 C -3,9 C 17,2 km/h (3 Bft)
20.02.2016 09:00 22,7 C 0,4 C 45 % 86 % 1020,7 hPa 0,0 l/m 12,4 km/h (3 Bft) S 0,00 h 0,5 UV-I 112 W/m -1,6 C -4,5 C 17,8 km/h (3 Bft)
20.02.2016 10:00 22,9 C 1,1 C 44 % 84 % 1020,1 hPa 0,0 l/m 11,7 km/h (2 Bft) S 0,00 h 0,6 UV-I 96 W/m -1,3 C -3,3 C 18,4 km/h (3 Bft)
20.02.2016 11:00 22,9 C 1,0 C 44 % 89 % 1019,5 hPa 0,0 l/m 11,8 km/h (2 Bft) S 0,00 h 0,7 UV-I 106 W/m -0,6 C -3,4 C 18,9 km/h (3 Bft)
20.02.2016 12:00 22,8 C 1,1 C 42 % 93 % 1018,5 hPa 0,2 l/m 9,6 km/h (2 Bft) S 0,00 h 0,6 UV-I 78 W/m 0,1 C -1,8 C 14,9 km/h (3 Bft)
20.02.2016 13:00 22,9 C 1,1 C 43 % 94 % 1017,4 hPa 0,4 l/m 11,2 km/h (2 Bft) S 0,00 h 0,5 UV-I 67 W/m 0,3 C -3,0 C 16,9 km/h (3 Bft)
20.02.2016 14:00 22,8 C 0,9 C 42 % 95 % 1016,9 hPa 0,6 l/m 10,3 km/h (2 Bft) S 0,00 h 0,0 UV-I 46 W/m 0,2 C -2,5 C 16,4 km/h (3 Bft)
20.02.2016 15:00 22,8 C 0,8 C 42 % 96 % 1016,4 hPa 0,4 l/m 9,9 km/h (2 Bft) S 0,00 h 0,0 UV-I 27 W/m 0,2 C -2,4 C 14,7 km/h (3 Bft)
20.02.2016 16:00 23,0 C 0,8 C 43 % 96 % 1015,9 hPa 0,6 l/m 8,2 km/h (2 Bft) S 0,00 h 0,0 UV-I 16 W/m 0,2 C -1,4 C 13,0 km/h (3 Bft)
20.02.2016 17:00 23,1 C 0,8 C 43 % 96 % 1015,7 hPa 0,4 l/m 4,1 km/h (1 Bft) S-SW 0,00 h 0,0 UV-I 5 W/m 0,2 C 0,3 C 7,7 km/h (2 Bft)
20.02.2016 18:00 23,1 C 0,8 C 44 % 96 % 1015,4 hPa 0,4 l/m 6,0 km/h (2 Bft) S 0,00 h 0,0 UV-I 0 W/m 0,3 C 0,1 C 10,8 km/h (2 Bft)
20.02.2016 19:00 23,1 C 0,9 C 43 % 96 % 1015,0 hPa 0,2 l/m 8,2 km/h (2 Bft) S 0,00 h 0,0 UV-I 0 W/m 0,3 C -1,0 C 12,9 km/h (3 Bft)
20.02.2016 20:00 23,0 C 1,1 C 44 % 96 % 1014,5 hPa 0,8 l/m 6,8 km/h (2 Bft) S 0,00 h 0,0 UV-I 0 W/m 0,6 C 0,2 C 11,1 km/h (2 Bft)
20.02.2016 21:00 23,1 C 1,9 C 45 % 97 % 1014,0 hPa 1,0 l/m 2,4 km/h (1 Bft) S-SW 0,00 h 0,0 UV-I 0 W/m 1,5 C 1,6 C 5,1 km/h (1 Bft)
20.02.2016 22:00 22,8 C 2,6 C 45 % 97 % 1013,8 hPa 0,8 l/m 0,8 km/h (0 Bft) SW 0,00 h 0,0 UV-I 0 W/m 2,2 C 2,6 C 3,2 km/h (1 Bft)
20.02.2016 23:00 22,7 C 3,2 C 45 % 97 % 1013,3 hPa 0,8 l/m 1,9 km/h (1 Bft) S 0,00 h 0,0 UV-I 0 W/m 2,8 C 3,2 C 5,3 km/h (1 Bft)
21.02.2016 00:00 22,4 C 3,8 C 45 % 97 % 1012,7 hPa 0,8 l/m 4,7 km/h (1 Bft) S 0,00 h 0,0 UV-I 0 W/m 3,4 C 3,6 C 10,1 km/h (2 Bft)
21.02.2016 01:00 22,3 C 4,4 C 46 % 98 % 1012,4 hPa 1,2 l/m 4,5 km/h (1 Bft) S 0,00 h 0,0 UV-I 0 W/m 4,1 C 4,2 C 9,6 km/h (2 Bft)
21.02.2016 02:00 22,2 C 4,9 C 46 % 98 % 1012,3 hPa 0,8 l/m 2,8 km/h (1 Bft) S 0,00 h 0,0 UV-I 0 W/m 4,6 C 4,9 C 7,5 km/h (2 Bft)
21.02.2016 03:00 22,2 C 6,0 C 47 % 98 % 1011,7 hPa 0,8 l/m 4,6 km/h (1 Bft) SW 0,00 h 0,0 UV-I 0 W/m 5,7 C 5,8 C 9,4 km/h (2 Bft)
21.02.2016 04:00 22,4 C 7,3 C 47 % 98 % 1011,7 hPa 1,0 l/m 4,9 km/h (1 Bft) W-SW 0,00 h 0,0 UV-I 0 W/m 7,0 C 7,0 C 10,4 km/h (2 Bft)
21.02.2016 05:00 22,4 C 8,0 C 48 % 98 % 1012,0 hPa 0,8 l/m 5,7 km/h (1 Bft) W-SW 0,00 h 0,0 UV-I 0 W/m 7,7 C 7,5 C 12,9 km/h (3 Bft)
21.02.2016 06:00 22,4 C 8,2 C 49 % 97 % 1012,4 hPa 0,6 l/m 9,2 km/h (2 Bft) W-SW 0,00 h 0,0 UV-I 0 W/m 7,8 C 6,0 C 16,3 km/h (3 Bft)
21.02.2016 07:00 22,4 C 8,3 C 49 % 97 % 1013,2 hPa 0,4 l/m 8,4 km/h (2 Bft) W-SW 0,00 h 0,0 UV-I 9 W/m 7,9 C 6,5 C 15,2 km/h (3 Bft)
21.02.2016 08:00 22,7 C 8,4 C 50 % 97 % 1013,9 hPa 0,4 l/m 7,7 km/h (2 Bft) W-SW 0,00 h 0,0 UV-I 13 W/m 8,0 C 6,8 C 13,3 km/h (3 Bft)
21.02.2016 09:00 22,7 C 8,6 C 49 % 97 % 1014,2 hPa 0,2 l/m 9,3 km/h (2 Bft) W-SW 0,00 h 0,0 UV-I 27 W/m 8,1 C 6,4 C 14,8 km/h (3 Bft)
21.02.2016 10:00 22,9 C 8,8 C 49 % 96 % 1014,3 hPa 0,2 l/m 13,0 km/h (3 Bft) W-SW 0,00 h 0,5 UV-I 65 W/m 8,2 C 4,7 C 20,4 km/h (4 Bft)
21.02.2016 11:00 22,8 C 8,8 C 48 % 96 % 1014,5 hPa 0,6 l/m 12,4 km/h (3 Bft) W-SW 0,00 h 0,5 UV-I 72 W/m 8,2 C 5,1 C 20,7 km/h (4 Bft)
21.02.2016 12:00 22,7 C 8,8 C 48 % 96 % 1014,1 hPa 0,2 l/m 16,6 km/h (3 Bft) W-SW 0,00 h 0,6 UV-I 88 W/m 8,2 C 3,2 C 28,0 km/h (4 Bft)
21.02.2016 13:00 22,6 C 8,8 C 48 % 96 % 1013,7 hPa 0,0 l/m 15,9 km/h (3 Bft) W-SW 0,00 h 0,6 UV-I 88 W/m 8,2 C 3,4 C 25,6 km/h (4 Bft)
21.02.2016 14:00 22,8 C 8,8 C 49 % 96 % 1013,6 hPa 0,2 l/m 16,7 km/h (3 Bft) W-SW 0,00 h 0,6 UV-I 81 W/m 8,2 C 3,2 C 27,5 km/h (4 Bft)
21.02.2016 15:00 23,3 C 9,1 C 48 % 95 % 1013,4 hPa 0,0 l/m 12,8 km/h (3 Bft) SW 0,00 h 0,0 UV-I 32 W/m 8,2 C 5,1 C 20,9 km/h (4 Bft)
21.02.2016 16:00 23,3 C 9,2 C 49 % 95 % 1013,4 hPa 0,2 l/m 13,2 km/h (3 Bft) SW 0,00 h 0,0 UV-I 22 W/m 8,4 C 5,2 C 22,4 km/h (4 Bft)
21.02.2016 17:00 23,4 C 9,5 C 50 % 93 % 1013,5 hPa 0,2 l/m 11,4 km/h (2 Bft) SW 0,00 h 0,0 UV-I 6 W/m 8,5 C 6,5 C 19,0 km/h (3 Bft)
21.02.2016 18:00 23,4 C 9,8 C 49 % 92 % 1013,5 hPa 0,0 l/m 12,2 km/h (2 Bft) W-SW 0,00 h 0,0 UV-I 0 W/m 8,6 C 6,3 C 21,0 km/h (4 Bft)
21.02.2016 19:00 23,4 C 9,9 C 49 % 91 % 1013,3 hPa 0,0 l/m 11,5 km/h (2 Bft) W-SW 0,00 h 0,0 UV-I 0 W/m 8,4 C 6,7 C 19,2 km/h (3 Bft)
21.02.2016 20:00 23,3 C 9,8 C 49 % 91 % 1012,9 hPa 0,0 l/m 12,6 km/h (3 Bft) SW 0,00 h 0,0 UV-I 0 W/m 8,4 C 6,2 C 21,6 km/h (4 Bft)
21.02.2016 21:00 23,3 C 9,5 C 49 % 92 % 1012,6 hPa 0,0 l/m 15,8 km/h (3 Bft) W-SW 0,00 h 0,0 UV-I 0 W/m 8,4 C 4,4 C 25,1 km/h (4 Bft)
21.02.2016 22:00 23,3 C 9,3 C 49 % 93 % 1012,1 hPa 0,2 l/m 16,0 km/h (3 Bft) W-SW 0,00 h 0,0 UV-I 0 W/m 8,3 C 4,0 C 26,4 km/h (4 Bft)
21.02.2016 23:00 22,9 C 9,0 C 49 % 93 % 1011,8 hPa 0,2 l/m 15,8 km/h (3 Bft) W-SW 0,00 h 0,0 UV-I 0 W/m 7,9 C 3,7 C 25,5 km/h (4 Bft)
Min-Datum _ 15.02.16 19.02.16 18.02.16 18.02.16 15.02.16 - 15.02.16 - - - - 19.02.16 17.02.16 15.02.16
_ Min-Zeit 11:04 07:11 11:38 13:09 00:00 - 00:00 - - - - 07:11 07:24 00:01
Minimum _ 20,1 C -2,7 C 36 % 69 % 998,0 hPa - 0,0 km/h (0 Bft) - - - - -3,5 C -10,6 C 0,0 km/h (0 Bft)
Max-Datum _ 21.02.16 21.02.16 21.02.16 20.02.16 16.02.16 15.02.16 21.02.16 - 16.02.16 18.02.16 18.02.16 21.02.16 21.02.16 21.02.16
_ Max-Zeit 17:40 18:28 08:30 23:43 19:08 13:12 12:12 - 12:48 12:09 13:42 18:28 18:53 22:15
Maximum _ 23,6 C 9,9 C 51 % 98 % 1035,4 hPa 1,4 l/m 29,0 km/h
W-SW (5 Bft)
- 0,03 h 1,8 UV-I 561 W/m 8,7 C 9,9 C 46,7 km/h
W-SW (6 Bft)
Durchschnitt _ 22,3 C 2,1 C 45 % 91 % 1019,0 hPa #17,4 l/m 4,5 km/h (1 Bft) W-SW #9:40 h 0,7 UV-I 80 W/m 0,8 C 1,0 C 8,1 km/h (2 Bft)